FW7733 Weather Reports


Display with metric or nautical units.
time (UTC)temp
F
wind
direction
speed
MPH
gust
MPH
rain 1hr
in
rain 24hr
in
rain mn
in
humidity
%
barometer
mb
20260507191530 58 0 1.0 4.0 0.00 0.00 0.00 70 1013.9
20260507190032 58 360 0.0 1.0 0.00 0.00 0.00 70 1013.8
20260507184531 59 0 0.0 2.0 0.00 0.00 0.00 69 1013.9
20260507183028 60 0 0.0 2.0 0.00 0.00 0.00 68 1013.7
20260507181530 60 0 0.0 5.0 0.00 0.00 0.00 65 1013.6
20260507180031 61 0 1.0 5.0 0.00 0.00 0.00 64 1013.5
20260507174540 61 20 2.0 7.0 0.00 0.00 0.00 64 1013.4
20260507173035 62 51 1.0 5.0 0.00 0.00 0.00 62 1013.2
20260507171533 63 28 1.0 6.0 0.00 0.00 0.00 60 1013.2
20260507170040 64 51 2.0 6.0 0.00 0.00 0.00 59 1013.1
20260507164527 63 0 1.0 4.0 0.00 0.00 0.00 61 1013.2
20260507163027 63 31 2.0 8.0 0.00 0.00 0.00 60 1013.2
20260507161529 61 22 1.0 5.0 0.00 0.00 0.00 66 1013.3
20260507160032 61 346 1.0 6.0 0.00 0.00 0.00 66 1013.2
20260507154528 61 60 1.0 8.0 0.00 0.00 0.00 66 1013.3
20260507153029 61 18 3.0 10.0 0.00 0.00 0.00 66 1013.3
20260507151527 62 352 4.0 13.0 0.00 0.00 0.00 63 1013.3
20260507150034 63 43 2.0 8.0 0.00 0.00 0.00 63 1013.1
20260507144530 63 34 3.0 10.0 0.00 0.00 0.00 64 1013.2
20260507143034 63 53 2.0 5.0 0.00 0.00 0.00 63 1013.2
20260507141531 62 57 2.0 8.0 0.00 0.00 0.00 63 1013.1
20260507140032 61 101 2.0 8.0 0.00 0.00 0.00 67 1013.2
20260507134531 61 112 3.0 8.0 0.00 0.00 0.00 65 1013.3
20260507133030 62 59 2.0 7.0 0.00 0.00 0.00 67 1013.5
20260507131536 62 50 3.0 8.0 0.00 0.00 0.00 66 1013.5
20260507130027 62 69 3.0 7.0 0.00 0.00 0.00 68 1013.5
20260507124531 60 171 3.0 10.0 0.00 0.01 0.00 66 1013.6
20260507123028 60 72 4.0 9.0 0.00 0.01 0.00 68 1013.6
20260507121531 60 9 1.0 6.0 0.00 0.01 0.00 70 1013.7
20260507120037 58 11 2.0 8.0 0.00 0.01 0.00 74 1013.7
20260507114527 60 334 3.0 10.0 0.00 0.11 0.00 70 1013.6
20260507113028 61 0 2.0 8.0 0.00 0.11 0.00 68 1013.6
20260507111528 60 5 2.0 8.0 0.00 0.11 0.00 69 1013.7
20260507110031 59 329 1.0 3.0 0.00 0.11 0.00 70 1013.8
20260507104528 59 115 2.0 7.0 0.00 0.12 0.00 69 1013.9
20260507101531 56 309 1.0 8.0 0.00 0.12 0.00 73 1014.1
20260507100034 58 311 3.0 9.0 0.00 0.12 0.00 72 1014.1
20260507094532 58 51 3.0 9.0 0.00 0.13 0.00 76 1014.1
20260507093031 56 248 0.0 6.0 0.00 0.13 0.00 76 1014.0
20260507090036 56 307 3.0 8.0 0.00 0.13 0.00 77 1013.9
20260507084531 56 28 4.0 9.0 0.00 0.14 0.00 75 1013.9
20260507083030 57 15 1.0 5.0 0.00 0.14 0.00 79 1013.9
20260507081540 56 0 0.0 3.0 0.00 0.14 0.00 81 1013.8
20260507080031 54 0 0.0 3.0 0.00 0.14 0.00 82 1013.9
20260507074545 52 234 1.0 3.0 0.00 0.14 0.00 87 1013.9
20260507073031 51 0 0.0 0.0 0.00 0.14 0.00 89 1013.9
20260507071529 51 0 0.0 2.0 0.00 0.14 0.00 89 1013.9
20260507070028 50 0 0.0 0.0 0.00 0.14 0.00 90 1013.9
20260507064528 49 0 0.0 0.0 0.00 0.14 0.00 92 1013.8
20260507063030 48 0 1.0 3.0 0.00 0.14 0.00 93 1013.8
20260507061532 48 0 0.0 3.0 0.00 0.14 0.00 94 1013.6
20260507060028 47 0 0.0 2.0 0.00 0.14 0.00 94 1013.5
20260507054528 47 0 0.0 1.0 0.00 0.14 0.00 94 1013.4
20260507053027 47 0 0.0 1.0 0.00 0.14 0.00 95 1013.2
20260507051528 47 274 0.0 1.0 0.00 0.14 0.00 95 1013.2
20260507050030 47 0 0.0 1.0 0.00 0.14 0.00 95 1012.9
20260507044527 47 0 0.0 2.0 0.00 0.14 0.00 95 1012.8
20260507043027 47 0 0.0 1.0 0.00 0.14 0.00 95 1012.5
20260507041531 47 0 0.0 2.0 0.00 0.14 0.00 94 1012.5
20260507040033 47 0 0.0 0.0 0.00 0.14 0.00 95 1012.5
20260507034530 46 0 0.0 2.0 0.00 0.14 0.00 94 1012.3
20260507033031 47 0 0.0 2.0 0.00 0.14 0.00 94 1012.1
20260507031527 47 0 0.0 3.0 0.00 0.14 0.00 94 1012.1
20260507030029 47 0 0.0 3.0 0.00 0.14 0.00 95 1012.0
20260507024527 46 58 1.0 3.0 0.00 0.14 0.00 95 1012.0
20260507023031 46 0 0.0 0.0 0.00 0.14 0.00 95 1011.9
20260507021528 45 0 0.0 0.0 0.00 0.14 0.00 95 1011.8
20260507020028 45 0 0.0 0.0 0.00 0.14 0.00 95 1011.8
20260507014543 45 0 0.0 2.0 0.00 0.14 0.00 95 1011.9
20260507013028 44 0 0.0 1.0 0.00 0.14 0.00 95 1011.7
20260507011529 44 0 0.0 2.0 0.00 0.14 0.00 95 1011.6
20260507010032 44 250 0.0 2.0 0.00 0.14 0.00 95 1011.6
20260507004530 44 0 0.0 0.0 0.00 0.14 0.00 95 1011.6
20260507003027 44 0 0.0 2.0 0.00 0.14 0.00 95 1011.6
20260507001530 43 0 0.0 1.0 0.00 0.14 0.00 95 1011.5
20260507000036 43 0 0.0 2.0 0.00 0.14 0.00 94 1011.5
20260506234527 43 250 0.0 3.0 0.00 0.14 0.00 94 1011.6
20260506233033 43 0 0.0 2.0 0.00 0.14 0.00 94 1011.6
20260506231528 44 187 0.0 3.0 0.00 0.14 0.00 93 1011.4
20260506230031 44 0 0.0 1.0 0.00 0.14 0.00 93 1011.4
20260506224529 45 0 0.0 4.0 0.00 0.14 0.00 93 1011.3
20260506223029 45 190 1.0 3.0 0.00 0.14 0.00 93 1011.3
20260506221530 45 196 1.0 4.0 0.00 0.14 0.00 93 1011.2
20260506220029 46 206 1.0 4.0 0.00 0.14 0.00 93 1011.2
20260506214528 46 196 2.0 4.0 0.00 0.14 0.14 93 1011.2
20260506213027 46 196 2.0 4.0 0.00 0.14 0.14 92 1011.2
20260506211534 46 218 0.0 3.0 0.00 0.14 0.14 91 1011.2
20260506210032 47 238 0.0 3.0 0.00 0.14 0.14 91 1011.1
20260506204529 48 0 1.0 4.0 0.00 0.15 0.14 90 1011.0
20260506203030 49 0 0.0 2.0 0.00 0.15 0.14 88 1010.9
20260506201531 49 0 1.0 4.0 0.00 0.15 0.14 87 1010.9
20260506200030 50 0 0.0 1.0 0.00 0.15 0.14 86 1010.8
20260506194530 51 0 0.0 1.0 0.00 0.15 0.14 84 1010.6
20260506193031 52 148 0.0 2.0 0.00 0.15 0.14 83 1010.4